Regional Weather Roundup
Issued by NWS Green Bay, WI

Home | Current Version | Previous Version | Graphics & Text | Print | Product List | Glossary Off
Versions: 1 2 3 4 5 6 7 8 9 10 11 12 13 14 15 16 17 18 19 20 21 22 23 24 25 26 27 28 29 30 31 32 33 34 35 36 37 38 39 40 41 42 43 44 45 46 47 48 49 50

000
ASUS43 KGRB 300059
RWRGRB

NORTH-CENTRAL AND NORTHEAST WISCONSIN REGIONAL WEATHER ROUNDUP
NATIONAL WEATHER SERVICE GREEN BAY WI
800 PM CDT MON SEP 29 2014

WIZ005-009-010>012-018-019-300200-
NORTH CENTRAL WISCONSIN

CITY           SKY/WX    TMP DP  RH WIND       PRES   REMARKS
IRONWOOD       NOT AVBL
MANITOWISH WTR NOT AVBL
ARBOR VITAE    NOT AVBL
EAGLE RIVER    NOT AVBL
LAND O LAKES   NOT AVBL
RHINELANDER    CLOUDY    39  36  89 N8        30.14S
PHILLIPS       NOT AVBL
ANTIGO         NOT AVBL
TOMAHAWK       NOT AVBL
MERRILL        NOT AVBL
$$

WIZ013-073-300200-
NORTHEAST WISCONSIN

CITY           SKY/WX    TMP DP  RH WIND       PRES   REMARKS
IRON MOUNTAIN  CLOUDY    42  37  82 N10G20    30.12R
MARINETTE      NOT AVBL
$$

WIZ017-030-035>037-045-300200-
CENTRAL WISCONSIN

CITY           SKY/WX    TMP DP  RH WIND       PRES   REMARKS
MEDFORD        NOT AVBL
WAUSAU         MOCLDY    47  39  74 NE9       30.09S
MOSINEE        PTCLDY    46  43  87 NE10      30.11R
MARSHFIELD     CLEAR     49  42  77 NE9       30.09R
WISC RAPIDS    CLOUDY    53  43  68 NE14      30.09S
STEVENS POINT  NOT AVBL
WAUPACA        NOT AVBL
SHAWANO        CLOUDY    50  42  74 N9        30.11R
CLINTONVILLE   CLOUDY    48  41  76 NE8       30.10R
$$

WIZ038-039-048-051-300200-
FOX VALLEY

CITY           SKY/WX    TMP DP  RH WIND       PRES   REMARKS
NWS GREEN BAY  CLOUDY    49  44  83 N10       30.09R
APPLETON       CLOUDY    50  45  81 N12       30.08R
OSHKOSH        CLOUDY    51  47  86 N17       30.07R
FOND DU LAC    LGT RAIN  52  48  86 N12       30.07R
$$

WIZ022-050-052-300200-
EAST CENTRAL WISCONSIN

CITY           SKY/WX    TMP DP  RH WIND       PRES   REMARKS
STURGEON BAY   NOT AVBL
MANITOWOC      NOT AVBL
SHEBOYGAN      LGT RAIN  49  47  93 N10       30.06R FOG
$$

LMZ563-521-522-541>543-300200-
LAKESHORE

STATION/POSITION TIME  TEMP    WIND        PRES    VSBY  WAVE
                       AIR SEA DIR/SP/G                  HT/PER
                 (UTC) (F)     (DEG/KT/KT) (MB)    (MI)  (FT/S)
SHEBOYGAN LKSHOR 0000   51 55  360/ 20/ 21 1017.9R
KEWAUNEE LKSHORE 0000   49     360/  7/ 11 1017.5R
TWO RIVERS CG    0000      43              1017.8
NORTHPORT PIER   0000   48     350/ 24/ 27 1018.3R
N MID LAKE BUOY  0000   48 59  340/ 23/ 27 1017.1R         5/ 5
S GREEN BAY BUOY 0000   51     VRB 19/ 23  1019.6R
STURGEON BAY CG  0000   48 61  330/  5     1018.2   3 1/2  2
CHAMBERS ISLAND  0000   48     340/ 20/ 26 1019.3R
MENOMINEE LKSHOR 0000   48     340/ 16/ 19 1019.8R
$$



USA.gov is the U.S. government's official web portal to all federal, state and local government web resources and services.